COSMO-SKYMED 1 (31598 NORAD) Tracking and Keplerian Element Data

This shows tracking and keplerian element data for the satellite.

Feedback or suggestion? Click here.




ElementValue
Catalog31598
NameCOSMO-SKYMED 1
Epoch Orbit79041
Epoch Day16.23309988
Epoch Year2022
RAAN202.0998
Inclination97.8812
Eccentricity0.0001432
Argument of Perigee93.6727
Mean Anonmoly266.462
Mean Motion14.82156462
Decay Rate2.57E-06
L11 31598U 07023A 22016.23309988 .00000257 00000+0 38786-4 0 9990
L22 31598 97.8812 202.0998 0001432 93.6727 266.4620 14.82156462790413

Live tracking and technical data element details for COSMO-SKYMED 1 (NORAD 31598). COSMO-SKYMED 1 can be tracked NOW for your location showing map with azimuth and elevation plus other details from your city location.

Track the satellite on the map from your city or location and see movement details for azimuth, elevation, latitude, longitude, range, height, and movement on the map or in text.







IsCatalogInMostPopularTable: catalog: 31598, numindb: 460
Update: records affected: 1



GetName: 31598 COSMO-SKYMED 1

Hit Count: updated at: Mon, 17 Jan 2022 00:31:03 GMT